Regional Weather Roundup
Issued by NWS

Home | Current Version | Previous Version | Graphics & Text | Print | Product List | Glossary On
Versions: 1 2 3 4 5 6 7 8 9 10 11 12 13 14 15 16 17 18 19 20 21 22 23 24 25 26 27 28 29 30 31 32 33 34 35 36 37 38 39 40 41 42 43 44 45 46 47 48 49 50
768
ASUS45 KBOU 280107
RWRCO

WEATHER ROUNDUP FOR COLORADO
NATIONAL WEATHER SERVICE DENVER/BOULDER CO
700 PM MDT SAT AUG 27 2016

NOTE: "FAIR" INDICATES FEW OR NO CLOUDS BELOW 12000 FEET WITH NO
SIGNIFICANT WEATHER AND/OR OBSTRUCTIONS TO VISIBILITY.

COZ001>005-013-030-031-280200-
...NORTHWEST COLORADO...

CITY           SKY/WX    TMP DP  RH WIND       PRES   REMARKS
CRAIG          FAIR      76  32  20 SW12      30.13S
HAYDEN         FAIR      73  28  19 W8        30.16S
MEEKER         FAIR      70  41  34 S8        30.16F
MOUNT WERNER   NOT AVBL
STEAMBOAT SPGS FAIR      70  30  22 W6        30.18S
WALDEN         FAIR      61  27  27 CALM      30.28S
$$

COZ006>008-011-280200-
...WEST CENTRAL VALLEYS...

CITY           SKY/WX    TMP DP  RH WIND       PRES   REMARKS
GRAND JUNCTION FAIR      72  46  39 SE14      30.10S
MONTROSE       FAIR      66  47  50 S12       30.21F
EAGLE          FAIR      72  36  26 SW10      30.20R
RIFLE          FAIR      73  46  38 W9        30.12S
DELTA          NOT AVBL
NUCLA          CLOUDY   N/A N/A N/A E8        30.28S
$$

COZ017>023-064>068-280200-
...SOUTHWEST COLORADO...

CITY           SKY/WX    TMP DP  RH WIND       PRES   REMARKS
DURANGO        CLOUDY    60  47  61 VRB3      30.26R
CORTEZ         MOCLDY    67  50  54 SW9       30.19F
PAGOSA SPRINGS CLOUDY    57  45  64 SE3       30.36R
TELLURIDE      LGT RAIN  49  47  92 SE5       30.41F
WOLF CREEK PAS RAIN      36  36 100 S13G21    30.58S VSB<1/4
$$

COZ009-010-012-014-032>034-037-058>063-280200-
...CENTRAL COLORADO...

CITY           SKY/WX    TMP DP  RH WIND       PRES   REMARKS
ASPEN          FAIR      60  41  49 SE10      30.28S
BUENA VISTA    DRIZZLE   59  44  57 CALM      30.30S
COPPER MTN     FAIR      46  34  61 CALM      30.55S
BERTHOUD PASS  MOCLDY    43  30  61 W14       30.56F
COTTONWOOD PAS CLOUDY    55  36  47 SW8G20    30.43R
GUNNISON       CLOUDY    55  46  71 CALM      30.35F
KREMMLING      MOCLDY    72  27  18 W6        30.22S
LEADVILLE      FAIR      54  35  48 N3        30.40S
MONARCH PASS   FAIR      39  36  87 W6        30.65F
SALIDA         FAIR      64  41  43 W8        30.35S
SUNLIGHT       FAIR      52  43  71 N6        30.49F
WILKERSON PASS CLOUDY    50  32  50 SW3       30.53R
$$

COZ069>075-280200-
...SAN LUIS VALLEY/SANGRE DE CRISTO MOUNTAINS...

CITY           SKY/WX    TMP DP  RH WIND       PRES   REMARKS
ALAMOSA        CLOUDY    60  43  53 NW20G29   30.27R
LA VETA PASS   CLOUDY    54  36  50 SW3       30.43R
SAGUACHE       FAIR      55  43  62 NW16G23   30.31R
$$

COZ035-036-038>040-280200-
...NORTHERN COLORADO FRONT RANGE...

CITY           SKY/WX    TMP DP  RH WIND       PRES   REMARKS
DENVER INTL AP MOCLDY    77  37  23 E13       30.06S
DMNS CITY PARK   N/A     76  37  24 S2        30.06R
AURORA         MOCLDY    75  38  26 SE6       30.09R
FRONT RANGE AP MOCLDY    81  36  19 E9G21     30.08S
ERIE MUNI ARPT NOT AVBL
BOULDER MUN AP FAIR      79  36  21 S6        30.04S
CENTENNIAL     MOCLDY    75  36  24 S6        30.10S
BROOMFIELD     MOCLDY    77  36  22 S9        30.08S
FORT COLLINS   FAIR      79  36  21 E8        30.01R
LONGMONT       FAIR      81  37  20 SE6       30.05R
$$

COZ041-046-047-076>085-087-088-280200-
...PIKES PEAK/PALMER DIVIDE AND SOUTHERN FOOTHILLS...

CITY           SKY/WX    TMP DP  RH WIND       PRES   REMARKS
COLO. SPRINGS  MOCLDY    73  45  36 E14       30.14R
A. F. ACADEMY  CLOUDY    72  38  29 N5        30.15S
SCHRIEVER AFB  NOT AVBL
ELLICOTT       NOT AVBL
FALCON         FAIR      67  41  39 E7        30.20S
FORT CARSON    MOCLDY    75  42  30 E5        30.10S
LIMON          FAIR      73  46  38 SE9       30.10S
MONUMENT HILL  FAIR      66  43  42 SE14      30.22R
TRINIDAD       FAIR      76  38  25 S14G26    30.09F
$$

COZ042>045-048>051-090-091-280200-
...NORTHEAST COLORADO...

CITY           SKY/WX    TMP DP  RH WIND       PRES   REMARKS
GREELEY ARPT   FAIR      79  45  29 SE8       30.03S
AKRON          FAIR      76  45  33 SE13      30.05S
BURLINGTON     FAIR      73  51  46 SE10      30.03S
WRAY           FAIR      79  55  44 S6        30.01S
STERLING       FAIR      77  54  44 S6        29.99F
HOLYOKE        FAIR      79  61  53 SE6       30.02F
FORT MORGAN    FAIR      79  38  23 E5        30.03S
$$

COZ086-089-092>099-280200-
...SOUTHEAST COLORADO...

CITY           SKY/WX    TMP DP  RH WIND       PRES   REMARKS
PUEBLO         FAIR      86  39  19 SE12      30.00S
LA JUNTA       FAIR      84  45  25 E10       29.99S
LAMAR          FAIR      86  50  28 E16       29.95S
SPRINGFIELD      N/A     71  56  58 S7        30.03S
$$




USA.gov is the U.S. government's official web portal to all federal, state and local government web resources and services.